Windsor Locks, CT

3:02 PM EST on February 25, 2017 (GMT -0500)
Bradley International

Weather History for KBDL - December, 2011

Change the Weather History Date:

Friday, December 2, 2011

  Actual Average Record
Temperature  
Mean Temperature 37 °F 37 °F  
Max Temperature 50 °F 45 °F 64 °F (1970)
Min Temperature 24 °F 28 °F 7 °F (1989)
Degree Days  
Heating Degree Days 28 28  
Month to date heating degree days 53 56  
Since 1 July heating degree days 1014 1263  
Cooling Degree Days 0 0  
Month to date cooling degree days 0 0  
Year to date cooling degree days 935 756  
Moisture  
Dew Point 26 °F    
Average Humidity 64    
Maximum Humidity 92    
Minimum Humidity 36    
Precipitation  
Precipitation 0.00 in 0.13 in 1.57 in (1996)
Month to date precipitation 0.00 0.25  
Year to date precipitation 64.23 42.66  
Snow  
Snow 0.00 in 0.20 in 6.00 in (1949)
Month to date snowfall 0.0 0.3  
Since 1 July snowfall 12.3 2.3  
Snow Depth -    
Sea Level Pressure  
Sea Level Pressure 30.33 in    
Wind  
Wind Speed 5 mph (West)    
Max Wind Speed 17 mph    
Max Gust Speed 22 mph    
Visibility 10 miles    
Events      
T = Trace of Precipitation, MM = Missing Value Source: NWS Daily Summary

Daily Weather History Graph

Daily Weather History Graph

Search for Another Location

Airport or City:

Trip Planner

Search our weather history database for the weather conditions in past years. The results will help you decide how hot, cold, wet, or windy it might be!

Date:

Astronomy

Dec. 02, 2011 Rise Set
Actual Time 6:59 AM EST 4:20 PM EST
Civil Twilight 6:28 AM EST 4:51 PM EST
Nautical Twilight 5:53 AM EST 5:26 PM EST
Astronomical Twilight 5:20 AM EST 5:59 PM EST
Moon 12:04 PM EST (12/2) No Moon Set
Length of Visible Light 10h 22m
Length of Day
9h 20m
First Quarter, 53% of the Moon is Illuminated
Dec 2
First Quarter
Dec 10
Full
Dec 17
Last Quarter
Dec 24
New
Jan 1
First Quarter

Hourly Weather History & Observations

Time (EST) Temp. Windchill Dew Point Humidity Pressure Visibility Wind Dir Wind Speed Gust Speed Precip Events Conditions
12:51 AM 30.2 °F 25.4 °F 23.0 °F 75% 30.29 in 10.0 mi West 4.6 mph - N/A   Clear
1:51 AM 30.0 °F - 23.0 °F 75% 30.32 in 10.0 mi Calm Calm - N/A   Clear
2:51 AM 27.0 °F - 23.0 °F 85% 30.31 in 10.0 mi Calm Calm - N/A   Clear
3:51 AM 28.9 °F - 24.1 °F 82% 30.30 in 10.0 mi Calm Calm - N/A   Clear
4:51 AM 27.0 °F - 24.1 °F 89% 30.30 in 10.0 mi Calm Calm - N/A   Clear
5:51 AM 26.1 °F - 23.0 °F 88% 30.31 in 10.0 mi Calm Calm - N/A   Partly Cloudy
6:51 AM 24.8 °F - 23.0 °F 93% 30.31 in 10.0 mi Calm Calm - N/A   Partly Cloudy
7:51 AM 28.0 °F - 25.0 °F 88% 30.33 in 10.0 mi Calm Calm - N/A   Scattered Clouds
8:51 AM 32.0 °F - 26.1 °F 79% 30.33 in 10.0 mi Calm Calm - N/A   Scattered Clouds
9:51 AM 37.0 °F 33.3 °F 27.0 °F 67% 30.33 in 10.0 mi SE 4.6 mph - N/A   Scattered Clouds
10:51 AM 42.1 °F 39.2 °F 28.0 °F 58% 30.32 in 10.0 mi South 4.6 mph - N/A   Scattered Clouds
11:51 AM 46.0 °F 41.9 °F 28.9 °F 51% 30.29 in 10.0 mi SSW 8.1 mph - N/A   Scattered Clouds
12:51 PM 48.0 °F - 28.0 °F 46% 30.27 in 10.0 mi South 6.9 mph - N/A   Mostly Cloudy
1:51 PM 48.9 °F - 27.0 °F 43% 30.24 in 10.0 mi SSW 11.5 mph - N/A   Clear
2:51 PM 50.0 °F - 26.1 °F 39% 30.24 in 10.0 mi SSW 9.2 mph - N/A   Mostly Cloudy
3:51 PM 48.9 °F - 23.0 °F 36% 30.27 in 10.0 mi WSW 9.2 mph - N/A   Mostly Cloudy
4:51 PM 48.0 °F - 23.0 °F 37% 30.29 in 10.0 mi WNW 6.9 mph - N/A   Mostly Cloudy
5:51 PM 46.0 °F 43.9 °F 25.0 °F 44% 30.32 in 10.0 mi West 4.6 mph - N/A   Overcast
6:51 PM 46.0 °F 41.0 °F 26.1 °F 46% 30.36 in 10.0 mi NW 10.4 mph - N/A   Mostly Cloudy
7:51 PM 43.0 °F 36.4 °F 27.0 °F 53% 30.40 in 10.0 mi NW 12.7 mph 20.7 mph N/A   Partly Cloudy
8:51 PM 41.0 °F 34.7 °F 28.9 °F 62% 30.43 in 10.0 mi NW 10.4 mph - N/A   Clear
9:51 PM 39.9 °F 34.5 °F 28.9 °F 65% 30.45 in 10.0 mi NW 8.1 mph - N/A   Clear
10:51 PM 37.9 °F 33.5 °F 28.0 °F 68% 30.48 in 10.0 mi NNW 5.8 mph - N/A   Clear
11:51 PM 37.0 °F 31.6 °F 28.0 °F 70% 30.48 in 10.0 mi NNW 6.9 mph - N/A   Clear